Wind_Speed
15 16 15 15 14 14 14 14 13 13 13 13 13 12 11 10 9 8 8 7 7 7 7 7 6 6 5 5 4 4 4 4 4 4 4 5 5 5 5 5 5 5 6
17 17 17 17 16 15 15 15 15 15 15 14 14 13 12 11 10 9 9 8 8 8 7 7 6 6 6 5 4 4 4 3 3 3 4 4 4 4 4 4 4 4 4
19 19 19 19 18 17 17 17 17 16 16 16 16 15 14 13 12 11 11 10 9 9 8 8 7 7 7 6 5 4 4 3 3 3 3 3 3 3 3 2 2 3 3
21 21 20 20 20 19 18 18 18 18 18 17 17 17 16 15 14 13 12 12 11 10 10 9 8 8 8 7 6 5 4 4 3 3 2 2 2 2 1 1 1 1 2
23 23 22 22 21 21 20 20 19 19 19 19 19 18 18 17 16 15 14 13 13 12 11 10 9 9 8 8 7 6 5 5 4 3 3 2 2 1 2 1 1 0 1
24 24 24 23 23 23 22 22 21 20 20 20 20 20 19 19 18 17 16 15 14 13 13 12 11 10 10 10 9 8 7 7 6 5 4 3 3 2 2 3 3 2 2
25 25 26 25 25 24 24 23 23 22 22 22 21 21 21 20 20 19 18 17 16 15 14 13 12 12 11 11 11 10 9 8 7 7 6 5 4 4 3 3 4 3 3
27 27 27 27 27 26 26 25 24 24 23 23 23 23 22 22 22 21 21 19 18 17 16 15 14 14 13 13 12 12 11 10 9 9 8 7 6 5 5 4 4 4 4
29 29 29 29 29 28 28 27 26 26 25 25 25 25 24 24 23 23 22 22 21 19 18 17 16 16 15 14 14 13 12 11 11 10 10 9 8 7 7 6 6 5 5
31 31 31 31 31 30 30 30 29 28 28 27 27 27 26 26 25 24 24 23 23 22 21 20 18 18 17 16 15 15 14 13 12 11 11 11 10 9 8 8 7 7 6
34 33 33 33 33 32 32 32 32 31 30 30 29 28 28 27 27 26 26 25 25 24 23 22 21 20 19 18 17 17 16 15 14 14 13 13 12 11 11 10 9 8 8
36 36 35 35 35 35 34 34 34 34 33 32 31 30 29 29 28 28 28 27 27 27 26 25 23 22 21 20 19 19 18 17 17 16 15 15 14 13 13 12 12 11 10
38 38 38 37 37 37 36 36 36 36 35 34 34 33 32 31 30 29 29 28 28 28 27 27 25 24 23 22 21 21 20 19 19 18 17 17 16 16 15 15 14 13 13
40 40 40 39 40 39 38 38 37 38 37 36 36 35 34 33 32 31 31 30 29 29 29 29 27 26 25 24 23 23 22 21 21 20 20 19 18 17 17 17 17 16 15
42 42 42 42 42 42 41 41 40 39 40 39 38 37 37 36 35 34 32 32 31 31 30 30 30 28 27 26 25 25 24 23 22 22 22 21 20 20 19 19 18 18 17
43 43 43 43 43 43 43 43 42 41 41 41 41 40 39 38 37 37 35 34 33 32 32 32 31 30 29 28 27 27 26 25 25 24 24 23 22 22 21 21 20 19 19
45 44 45 45 45 45 45 44 44 43 43 42 42 42 41 41 40 39 38 36 35 34 33 33 32 32 31 30 30 29 28 27 27 26 25 25 24 24 23 22 22 21 21
46 46 46 46 47 46 46 46 46 45 44 44 43 43 43 43 42 42 41 39 37 36 35 35 34 34 33 32 31 31 30 30 29 28 27 27 26 26 25 24 24 23 23
47 47 47 47 48 48 47 46 47 47 47 46 45 45 44 45 44 44 43 42 41 40 38 37 36 36 35 34 34 33 32 31 31 30 29 29 28 27 27 27 26 25 25
47 48 48 49 49 49 49 48 48 48 48 49 48 47 47 46 46 46 45 44 43 43 42 40 39 38 38 37 36 35 34 33 32 32 31 30 30 29 28 28 28 27 27
47 48 48 50 50 51 50 50 49 49 50 50 49 49 48 48 48 47 47 47 46 45 44 43 42 41 40 40 39 38 37 35 34 33 33 32 32 31 30 30 29 29 28
48 48 50 50 50 51 51 51 51 51 51 51 51 51 50 50 49 49 48 48 48 47 46 46 45 44 43 42 41 40 39 38 36 35 34 33 33 32 32 31 31 31 31
47 47 48 49 50 51 51 52 52 52 51 51 51 51 52 52 51 50 50 50 49 49 48 48 47 47 45 44 44 43 42 41 39 38 37 35 34 34 33 33 33 33 33
45 46 47 48 49 51 51 52 52 51 52 52 52 52 52 53 53 52 51 51 50 50 50 50 49 49 47 46 45 45 45 43 42 40 39 37 36 36 35 34 34 34 34
45 46 46 46 47 49 51 52 52 52 52 53 53 52 52 53 53 52 50 51 51 51 51 51 50 50 50 49 47 47 46 45 44 43 41 40 39 38 37 36 35 35 35
44 45 46 47 47 47 49 51 52 52 52 53 54 55 54 53 53 53 53 52 52 52 52 52 51 51 51 50 49 49 47 47 46 45 44 42 41 40 39 38 37 37 37
Wind_Direction
232 231 230 229 228 226 225 222 218 214 212 209 207 205 202 202 200 197 195 192 189 188 188 184 176 168 164 157 148 137 129 121 119 115 113 112 104 98 96 93 89 82 75
234 233 232 231 231 230 229 226 221 218 216 214 213 211 209 208 208 206 203 200 199 200 199 196 191 187 179 168 159 148 141 140 132 120 114 118 115 106 103 98 89 80 70
236 235 235 233 232 232 232 228 225 222 220 219 218 217 216 215 215 214 212 210 209 209 209 209 204 199 195 187 177 167 160 156 150 141 127 118 118 110 107 105 95 83 72
238 237 236 234 233 232 232 230 227 226 224 223 222 222 222 221 221 220 219 219 218 216 214 214 211 209 205 205 203 195 186 177 170 167 161 153 152 146 133 123 108 85 66
239 237 236 235 233 232 233 232 230 229 227 226 225 225 225 225 225 225 224 224 224 223 221 221 219 216 214 211 213 212 210 205 200 198 196 197 196 205 215 223 229 16 26
240 239 237 236 235 233 232 232 231 230 229 229 228 227 228 228 228 228 227 227 227 227 226 226 225 222 221 220 220 221 220 218 216 217 221 224 229 235 236 239 242 252 272
239 239 239 238 237 235 234 234 233 232 232 231 230 230 230 231 231 231 230 230 230 230 230 229 228 226 227 227 227 228 228 227 225 228 231 233 235 240 246 247 248 255 264
240 239 239 239 239 237 236 236 236 234 234 233 232 232 232 233 233 233 234 233 232 232 232 233 233 231 231 232 232 232 232 233 232 232 236 238 241 244 251 254 257 260 268
241 240 239 239 239 239 238 236 237 237 236 235 235 235 235 235 235 235 235 234 234 234 234 235 235 235 235 235 236 236 235 236 236 235 238 241 243 247 251 254 258 263 265
242 241 241 240 239 239 239 239 238 238 238 238 237 237 237 237 237 237 237 236 236 236 237 237 237 238 238 238 238 238 237 238 238 238 240 243 245 248 250 254 258 263 265
243 243 242 242 241 241 240 240 239 239 239 240 240 240 239 239 239 240 240 240 239 238 239 239 240 240 240 240 241 241 240 241 241 241 243 245 246 249 251 254 257 260 265
244 244 243 243 243 242 241 241 241 240 239 240 240 241 241 241 241 241 242 242 241 240 240 241 242 242 242 243 243 243 243 243 245 245 246 247 249 250 250 253 256 260 264
245 244 243 243 243 243 242 242 242 241 240 240 240 241 241 242 242 242 243 243 243 241 241 241 242 243 243 243 243 245 245 246 246 247 248 249 250 250 251 253 255 260 264
245 244 244 244 244 244 244 243 243 242 240 240 240 241 242 243 243 243 243 243 243 243 242 241 242 243 244 244 244 245 247 247 247 248 249 250 250 251 253 255 256 260 264
246 245 244 244 244 244 243 243 244 243 242 241 241 241 242 243 244 244 243 243 243 243 242 242 243 243 244 244 245 246 247 248 249 249 249 250 251 252 254 256 258 260 262
246 245 245 244 244 244 243 244 245 244 243 243 242 242 242 243 243 244 244 243 243 243 242 242 243 242 244 245 246 247 248 249 250 250 251 251 251 252 254 255 257 258 260
246 245 245 244 244 244 244 244 244 244 244 243 243 242 242 243 243 244 244 244 244 244 244 244 244 243 244 245 246 247 248 249 250 250 251 251 252 253 254 256 256 258 259
246 246 246 245 245 245 244 244 243 244 244 243 243 243 243 243 243 243 244 244 244 245 245 245 245 245 245 246 247 248 249 250 250 251 251 252 252 253 254 255 256 257 259
246 246 246 246 246 245 244 243 243 244 244 243 243 242 243 244 244 244 243 244 244 245 246 246 245 245 246 247 248 249 250 251 251 251 252 253 253 253 254 255 257 257 258
247 247 247 247 246 246 245 244 244 243 244 244 244 243 243 244 244 244 243 243 244 245 245 246 246 246 247 247 248 249 250 250 251 252 252 253 253 253 254 254 256 256 257
247 247 247 247 246 245 245 244 244 244 244 244 244 243 244 244 245 245 245 243 243 244 244 245 246 247 248 248 248 249 250 251 251 252 252 253 253 252 253 254 255 257 258
247 247 247 246 246 245 245 245 244 244 244 244 244 244 245 245 245 245 244 244 244 244 244 245 246 248 248 249 249 249 251 251 251 252 252 253 252 253 254 255 255 257 258
247 246 247 246 246 245 244 244 244 244 244 244 244 244 244 245 246 246 246 245 245 244 244 245 246 247 248 249 250 250 250 250 250 251 252 253 253 253 254 255 257 258 259
247 247 246 245 245 244 243 243 244 244 243 242 243 243 244 244 245 246 246 245 246 245 244 244 245 246 247 248 249 250 250 250 250 251 252 253 254 254 255 256 257 258 260
248 247 247 246 246 245 245 244 245 244 243 242 242 243 244 244 245 245 246 245 244 244 245 245 245 246 247 247 249 250 250 251 252 253 253 253 254 255 256 256 256 257 259
249 248 247 247 246 246 245 245 245 245 244 245 244 244 244 245 245 245 246 245 244 244 245 244 245 246 247 248 249 249 250 251 253 253 253 253 253 254 255 255 256 257 258
Height
5842 5842 5844 5845 5846 5848 5849 5850 5852 5853 5854 5855 5856 5857 5858 5859 5860 5862 5863 5863 5864 5865 5866 5866 5867 5867 5868 5868 5869 5869 5870 5870 5871 5871 5871 5872 5872 5872 5872 5873 5873 5873 5873
5839 5840 5842 5843 5844 5846 5847 5849 5850 5851 5853 5854 5855 5856 5857 5859 5860 5861 5862 5863 5864 5865 5865 5866 5867 5867 5868 5869 5869 5870 5870 5871 5871 5871 5872 5872 5872 5873 5873 5873 5873 5873 5873
5836 5838 5839 5841 5842 5843 5845 5846 5848 5850 5851 5852 5854 5855 5856 5857 5859 5860 5861 5862 5863 5864 5865 5866 5866 5867 5868 5869 5869 5870 5870 5871 5871 5872 5872 5872 5873 5873 5873 5874 5874 5874 5874
5833 5835 5836 5838 5840 5841 5842 5844 5846 5847 5849 5850 5852 5853 5854 5856 5857 5858 5860 5861 5862 5863 5864 5865 5866 5867 5867 5868 5869 5870 5870 5871 5871 5872 5872 5873 5873 5873 5874 5874 5874 5874 5874
5830 5831 5833 5835 5836 5838 5840 5841 5843 5845 5846 5848 5849 5851 5852 5854 5855 5857 5858 5859 5860 5862 5863 5864 5865 5866 5867 5867 5868 5869 5870 5871 5871 5872 5872 5873 5873 5873 5874 5874 5874 5874 5874
5826 5828 5830 5831 5833 5835 5836 5838 5840 5842 5843 5845 5847 5848 5850 5852 5853 5855 5856 5857 5859 5860 5861 5862 5863 5864 5865 5866 5867 5868 5869 5870 5871 5872 5872 5873 5873 5873 5873 5873 5874 5874 5874
5821 5823 5825 5827 5829 5831 5833 5835 5836 5838 5840 5842 5844 5845 5847 5849 5850 5852 5854 5855 5856 5858 5859 5860 5862 5863 5864 5865 5866 5867 5868 5869 5870 5871 5871 5872 5872 5872 5873 5873 5873 5873 5873
5817 5819 5821 5823 5825 5827 5829 5830 5832 5834 5836 5838 5840 5842 5844 5846 5847 5849 5851 5853 5854 5855 5857 5858 5859 5860 5862 5863 5864 5865 5866 5867 5868 5869 5870 5871 5871 5871 5872 5872 5872 5872 5872
5812 5814 5816 5818 5820 5822 5824 5826 5828 5830 5832 5834 5836 5838 5840 5842 5844 5846 5848 5849 5851 5853 5854 5856 5857 5858 5859 5860 5862 5863 5864 5865 5866 5867 5868 5869 5870 5870 5870 5871 5871 5871 5871
5806 5809 5811 5813 5815 5817 5819 5821 5824 5826 5827 5830 5832 5834 5836 5838 5840 5842 5844 5846 5848 5849 5851 5853 5854 5855 5857 5858 5859 5860 5862 5863 5864 5865 5866 5867 5868 5868 5869 5869 5869 5870 5870
5800 5803 5805 5807 5809 5811 5813 5816 5818 5820 5823 5825 5827 5829 5831 5834 5836 5838 5840 5842 5844 5846 5847 5849 5851 5852 5853 5855 5856 5858 5859 5860 5862 5863 5864 5865 5865 5866 5866 5867 5867 5868 5868
5793 5796 5798 5801 5803 5805 5807 5810 5812 5814 5817 5819 5822 5824 5826 5829 5831 5833 5835 5837 5839 5841 5843 5845 5847 5848 5850 5851 5853 5854 5856 5857 5858 5860 5861 5862 5863 5863 5864 5865 5865 5866 5866
5785 5788 5791 5793 5796 5797 5800 5803 5805 5808 5810 5813 5816 5818 5821 5823 5825 5828 5830 5832 5834 5836 5839 5840 5842 5844 5846 5847 5849 5850 5852 5853 5855 5856 5857 5859 5859 5860 5861 5862 5862 5863 5863
5776 5779 5782 5785 5788 5790 5793 5795 5798 5800 5803 5806 5809 5812 5814 5817 5819 5822 5824 5826 5829 5831 5833 5835 5837 5839 5841 5843 5844 5846 5848 5849 5851 5852 5854 5855 5856 5857 5858 5858 5859 5860 5860
5767 5770 5773 5776 5779 5782 5784 5786 5790 5793 5796 5799 5802 5804 5807 5810 5813 5815 5818 5820 5822 5825 5827 5829 5832 5834 5836 5838 5839 5841 5843 5845 5846 5848 5849 5851 5852 5853 5854 5855 5855 5856 5856
5756 5759 5763 5766 5769 5773 5776 5779 5782 5784 5787 5791 5794 5797 5799 5803 5806 5808 5811 5813 5816 5818 5821 5823 5825 5828 5830 5832 5834 5836 5838 5839 5841 5843 5844 5846 5847 5848 5849 5850 5851 5852 5852
5745 5749 5752 5756 5759 5762 5766 5769 5773 5775 5778 5782 5785 5788 5791 5794 5798 5801 5803 5806 5809 5811 5814 5816 5819 5821 5823 5826 5828 5830 5832 5834 5836 5837 5839 5840 5842 5843 5844 5845 5846 5847 5848
5734 5738 5741 5745 5748 5751 5755 5759 5762 5766 5769 5772 5776 5779 5782 5785 5788 5792 5795 5798 5801 5804 5806 5809 5812 5814 5817 5819 5821 5823 5826 5827 5829 5831 5833 5834 5836 5837 5839 5840 5841 5842 5843
5722 5725 5729 5733 5736 5740 5743 5747 5751 5755 5758 5762 5765 5769 5772 5775 5779 5782 5786 5789 5793 5796 5799 5801 5804 5807 5809 5812 5814 5816 5819 5821 5822 5824 5826 5828 5830 5831 5833 5834 5835 5836 5837
5710 5713 5717 5720 5724 5728 5731 5735 5740 5743 5747 5751 5754 5758 5761 5765 5769 5772 5776 5780 5783 5786 5790 5793 5795 5799 5801 5804 5806 5809 5811 5813 5815 5817 5819 5821 5823 5825 5826 5828 5829 5830 5831
5697 5701 5704 5707 5711 5714 5719 5723 5728 5731 5735 5739 5742 5746 5749 5753 5757 5761 5765 5769 5773 5776 5780 5783 5786 5789 5792 5795 5798 5800 5803 5805 5808 5810 5812 5814 5816 5817 5819 5821 5822 5823 5825
5684 5687 5691 5694 5697 5701 5705 5710 5715 5719 5723 5726 5730 5734 5737 5741 5745 5749 5753 5758 5762 5766 5769 5773 5777 5780 5783 5786 5789 5791 5794 5797 5799 5802 5804 5806 5808 5810 5812 5813 5815 5816 5817
5671 5674 5677 5680 5684 5687 5691 5696 5701 5705 5709 5713 5717 5721 5725 5729 5732 5737 5741 5745 5750 5754 5758 5762 5766 5770 5773 5776 5779 5782 5785 5788 5791 5794 5795 5798 5800 5802 5804 5805 5807 5808 5810
5658 5661 5664 5667 5670 5674 5678 5682 5686 5691 5695 5700 5704 5708 5711 5715 5720 5724 5728 5732 5737 5742 5747 5751 5754 5758 5762 5765 5768 5771 5775 5778 5781 5784 5787 5789 5791 5793 5795 5797 5799 5800 5801
5645 5648 5651 5654 5657 5661 5665 5669 5673 5677 5681 5686 5691 5695 5698 5702 5707 5711 5715 5719 5724 5729 5734 5738 5742 5746 5750 5754 5757 5761 5764 5767 5770 5773 5777 5780 5782 5784 5786 5788 5790 5792 5793
5633 5636 5639 5642 5645 5649 5652 5656 5660 5664 5668 5673 5678 5682 5686 5690 5694 5698 5702 5706 5711 5715 5721 5725 5730 5734 5738 5742 5746 5749 5753 5756 5759 5762 5766 5769 5772 5774 5776 5778 5780 5782 5784